User: anonymous   Login
Location: Unspecified
(0.0000°N, 0.0000°E)
Time: 06:45:23
(UTC+00:00)
Language:

ANTELSAT - Orbit

View from above orbital plane
View from above orbital plane
View from above satellite
View from above satellite

Ground track
Ground track

The orbit data is extracted from the following two-line orbital elements,

1 40034U 14033AA  17087.68766509 +.00000424 +00000-0 +71075-4 0  9996
2 40034 097.8706 334.0653 0058702 190.4706 169.5285 14.73638097148538
Epoch (UTC): 28 March 2017 16:30:14
Eccentricity: 0.0058702
inclination: 97.8706°
perigee height: 608 km
apogee height: 691 km
right ascension of ascending node: 334.0653°
argument of perigee: 190.4706°
revolutions per day: 14.73638097
mean anomaly at epoch: 169.5285°
orbit number at epoch: 14853

The dashed part of the orbit path shows where the satellite is in the earth's shadow,  

DLR